Location: Cosy Dell
(34.2789°N, 117.4537°W)
Time: 21:17:40
(UTC+00:00)

Cosmos 1656 - Pass Details

Date: 14 July 2020
Orbit: 799 x 848 km, 71.1° (Epoch: 13 August)

Event Time Altitude Azimuth Distance (km) Brightness Sun altitude
Rises 09:15:09 0° 345° (NNW) 3,312 7.5 -31.0°
Reaches altitude 10° 09:17:39 10° 351° (N) 2,380 6.7 -30.8°
Maximum altitude 09:22:54 48° 66° (ENE) 1,036 4.3 -30.4°
Enters shadow 09:23:19 47° 81° (E) 1,050 4.3 -30.4°
